Location: Dillon
(41.1766°N, 107.0923°W)
Time: 12:51:48
(UTC+00:00)

AO-92 - Pass Details

Date: 01 July 2022
Orbit: 469 x 481 km, 97.4° (Epoch: 13 August)

Event Time Altitude Azimuth Distance (km) Brightness Sun altitude
Exits shadow 04:02:38 10° 89° (E) 1,673 ? -12.1°
Reaches altitude 10° 04:02:46 10° 87° (E) 1,652 ? -12.2°
Maximum altitude 04:04:04 12° 65° (ENE) 1,551 ? -12.3°
Drops below altitude 10° 04:05:23 10° 43° (NE) 1,660 ? -12.5°
Sets 04:08:37 0° 11° (N) 2,550 ? -12.9°
